map of AER home
Great Circle Mapper logo
AER - Airport
Location
City:  Sochi, Krasnodar, Russian Federation (Russia)
ICAO / IATA:URSS / AER

Details
Type:Airport (Aerodrome, Airfield)
Use:Public/Civil
Latitude:4327'00"N (43.449928)
Longitude:3957'24"E (39.956589)
Datum:WGS 1984
Elevation:89 ft (27 m)
Variation:6.7E (WMM2010 magnetic declination)
Runways:2
Longest:9482 × 164 ft (2890 × 50 m), paved

Time
Time Zone:UTC+3 (DST+4)

Weather
METAR:URSS 272330Z 33003MPS 9999 OVC020CB 08/05 Q1024 NOSIG RMK R02/33003MPS MT OBSC QFE767 0629//50 0229//50
TAF:URSS 272247Z 2800/2824 31005G10MPS 5000 -SHRA BKN010 BKN020CB OVC100 530002
TEMPO 2800/2806 06006MPS 2100 -SHRA BR BKN006 BKN020CB OVC100
BECMG 2806/2808 31006G11MPS 9999 NSW SCT015 BKN020CB BKN100
BECMG 2815/2816 06006MPS SCT020 BKN100

Related Locations
Nearby:
Farthest:NTAV: 11014 mi / 17726 km
Raivavae, Tubuai Islands, Austral Islands, PF

Find:

   beyond  
but within

Other Information
Maps:
NOTAMs:
Links:
Sources:

  
flag of Russian Federation (Russia)   

Sectional Chart

Flight Planning
at skyvector.com

Satellite Image

Google Maps Satellite View

 

Copyright © 2004-2014 Karl L. Swartz. All rights reserved.
The Great Circle Mapper name and logo are trademarks of the Great Circle Mapper.
All other trademarks mentioned herein belong to their respective owners.
Please see credits for attibutions and further copyright information.

  Follow gcmap on Facebook Follow gcmap on Twitter

hCard Microformat

Geo Microformat